{"data":{"norad_id":62920,"intl_designator":"2025-027P","name":"STARLINK-32921","alt_names":[],"object_type":"PAYLOAD","status":"ACTIVE","operator":null,"country":"US","launch_date":"2025-02-08","launch_site_code":"AFETR","launch_vehicle":null,"mission":null,"orbit_class":"UNKNOWN","rcs_meters":null,"size_class":null,"mass_kg":null,"dimensions":null,"purposes":["comms"],"wikipedia_slug":null,"has_3d_model":false,"image_url":null,"decayed_at":null,"tle_current":{"epoch":"2026-05-25T03:00:10.328256Z","epoch_age_seconds":67547,"freshness":"FRESH","line1":"1 62920U 25027P   26145.12511954  .00014998  00000+0  55326-3 0  9995","line2":"2 62920  43.0009  57.0758 0001299 259.5450 100.5255 15.27588710 73237","mean_motion":15.2758871,"eccentricity":0.0001299,"inclination_deg":43.0009,"raan_deg":57.0758,"arg_perigee_deg":259.545,"mean_anomaly_deg":100.5255,"bstar":0.00055326,"rev_number":7323,"period_min":94.266211223831,"perigee_km":482.13175060418,"apogee_km":483.91427997616,"semimajor_km":6861.1600152902,"source":"CELESTRAK","updated_at":"2026-05-25T13:38:19.821921Z"}}}